Regional Weather Roundup
Issued by NWS

Home | Current Version | Previous Version | Text Only | Print | Product List | Glossary On
Versions: 1 2 3 4 5 6 7 8 9 10 11 12 13 14 15 16 17 18 19 20 21 22 23 24 25 26 27 28 29 30 31 32 33 34 35 36 37 38 39 40 41 42 43 44 45 46 47 48 49 50
000
ASUS44 KFWD 251515
RWRTX
NORTH TEXAS HOURLY WEATHER ROUNDUP
NATIONAL WEATHER SERVICE FORT WORTH TX
900 AM CST SUN JAN 25 2015

NOTE: "FAIR" INDICATES FEW OR NO CLOUDS BELOW 12,000 FEET WITH NO
SIGNIFICANT WEATHER AND/OR OBSTRUCTIONS TO VISIBILITY.

TXZ118-119-251600-
DALLAS/FORT WORTH METROPLEX

CITY           SKY/WX    TMP DP  RH WIND       PRES   REMARKS
DFW AIRPORT    MOSUNNY   50  35  56 NW14      30.02R
DALLAS LOVE    MOSUNNY   49  37  63 NW8       30.02R
FTW MEACHAM    SUNNY     50  37  61 NW17G24   30.04R
DAL-EXECUTIVE  SUNNY     51  36  56 NW15      30.01R
FTW-ALLIANCE   MOSUNNY   49  36  61 NW12      30.03R
FTW-SPINKS     SUNNY     48  37  66 NW9       30.06R
ARLINGTON      SUNNY     51  35  54 W14G23    30.03R
GRAND PRAIRIE  SUNNY     50  37  62 W9G18     30.02S
MESQUITE       SUNNY     50  36  57 NW12      30.01R
LANCASTER      SUNNY     49  35  58 NW14G20   30.02R
$$

TXZ091>094-102>105-117-120-121-131>134-251600-
NORTH CENTRAL TEXAS

CITY           SKY/WX    TMP DP  RH WIND       PRES   REMARKS
SHRMAN/DENISON SUNNY     47  40  78 W9        30.00R
GAINESVILLE    SUNNY     49  36  60 NW13      30.03R
BOWIE          SUNNY     47  36  64 NW16G22   30.05R
BRIDGEPORT     SUNNY     47  38  70 NW9       30.07R
DECATUR        SUNNY     44  35  68 NW8       30.04R WCI  40
DENTON         SUNNY     47  36  65 NW12      30.02R
MCKINNEY       SUNNY     49  37  63 NW10      29.99R
GREENVILLE     SUNNY     50  36  57 W8        29.99R
ROCKWALL       SUNNY     49  37  65 NW10      29.99R
TERRELL        SUNNY     50  39  66 NW13      30.00R
WAXAHACHIE     SUNNY     49  38  65 NW13      30.03R
CLEBURNE       SUNNY     48  39  71 NW15      30.06R
GRANBURY       SUNNY     50  37  61 NW13      30.08R
$$

TXZ083>090-098>101-113>116-127>130-139>142-154-155-251600-
WESTERN NORTH TEXAS

CITY           SKY/WX    TMP DP  RH WIND       PRES   REMARKS
WICHITA FALLS  SUNNY     49  33  54 NW20      30.09R
WF-KICKAPOO    SUNNY     43  27  52 NW15      30.10R WCI  36
VERNON         SUNNY     48  29  47 NW17      30.13R
ABILENE        MOSUNNY   44  33  65 NW8       30.15R WCI  39
ABILENE-DYESS  MOSUNNY   43  33  66 NW10      30.15R WCI  37
BRECKENRIDGE   SUNNY     48  35  60 NW5       30.11S
GRAHAM         SUNNY     46  37  72 NW8       30.09R
MINERAL WELLS  SUNNY     46  35  65 W7        30.07R
STEPHENVILLE   SUNNY     48  35  59 NW13      30.09R
COMANCHE       MOSUNNY   49  37  62 NW12      30.10R
BROWNWOOD      MOSUNNY   45  36  70 NW8       30.11R
COLEMAN        MOSUNNY   50  37  59 N14       30.12R
BRADY          SUNNY     48  36  61 NW13      30.10R
$$

TXZ143>147-156>162-174-175-251600-
CENTRAL TEXAS

CITY           SKY/WX    TMP DP  RH WIND       PRES   REMARKS
WACO           SUNNY     50  38  63 NW14      30.04R
WACO-TSTC      SUNNY     48  39  71 NW8       30.04R
WACO-MCGREGOR  SUNNY     48  37  66 NW10      30.06R
HILLSBORO      SUNNY     47  40  76 NW7       30.04R
CORSICANA      SUNNY     51  38  60 NW14      30.02R
MEXIA          SUNNY     47  37  68 NW13G18   30.01R
HEARNE         SUNNY     45  39  77 W5        30.05R
CAMERON        SUNNY     50  37  62 W8        30.04S
TEMPLE         SUNNY     50  36  57 NW12      30.04R
KILLEEN        SUNNY     52  35  52 NW17      30.06R
KILLEEN-SKYLRK SUNNY     52  34  50 NW9       30.04R
FORT HOOD      SUNNY     50  36  57 MISG      30.05R
GATESVILLE     SUNNY     48  36  61 N9        30.09R
HAMILTON       SUNNY     49  35  59 NW9       30.08R
LAMPASAS       SUNNY     50  37  61 NW7       30.07R
$$

TXZ095>097-106>112-122>126-135>138-148>153-164>167-251600-
EAST TEXAS

CITY           SKY/WX    TMP DP  RH WIND       PRES   REMARKS
PARIS          SUNNY     48  37  66 NW10      29.94S
SULPHUR SPRNGS SUNNY     50  38  62 NW13      29.98S
MOUNT PLEASANT SUNNY     50  37  61 W10       29.96R
GILMER         SUNNY     49  37  64 W5        29.95R
MINEOLA        SUNNY     48  37  66 W7        29.98R
TYLER          SUNNY     49  37  63 W8        29.97R
LONGVIEW       SUNNY     50  37  61 W9        29.94R
MARSHALL       SUNNY     48  39  71 W7        29.95R
ATHENS         SUNNY     46  36  66 NW7       29.99R
PALESTINE      SUNNY     45  39  79 W3        30.01R
HENDERSON      SUNNY     46  38  73 W7        29.97R
NACOGDOCHES    SUNNY     45  36  70 W5        29.98R
LUFKIN         SUNNY     50  39  66 SW5       29.98R
$$

SUPPLEMENTAL OBSERVATIONS (CENTRAL)

CITY           SKY/WX    TMP DP  RH WIND       PRES   REMARKS
LAKE TEXOMA      N/A     48  36  61 W14         N/A
CADDO GRASSLND   N/A     54  37  54 NW8         N/A
PAT MAYSE LAKE   N/A     48  36  61 W9          N/A
GREENVILLE       N/A     52  39  62 NW7         N/A
CEDAR HILL       N/A     52  37  58 NW3         N/A
ATHENS           N/A     52  39  62 NW3         N/A
PALESTINE        N/A     52  37  58 NW6         N/A
LAKE LIMESTONE   N/A     50  37  62 NW8         N/A
MCGREGOR         N/A     52  37  58 NW6         N/A
TEMPLE           N/A     52  37  58 NW6         N/A
$$

SUPPLEMENTAL OBSERVATIONS (WEST)

CITY           SKY/WX    TMP DP  RH WIND       PRES   REMARKS
MILLERS CREEK    N/A     50  32  50 N14G22      N/A
POSSUM KINGDOM   N/A     46  32  57 NW12        N/A
LBJ GRASSLAND    N/A     46  37  71 NW1         N/A
GRANBURY         N/A     50  36  57 NW16        N/A
COMANCHE         N/A     52  37  58 NW15        N/A
HAMBY            N/A     41  34  75 NW5         N/A  WCI  38
IVIE RESERVOIR   N/A     45  34  65 W7          N/A
COLORADO BEND    N/A     50  34  53 NW8         N/A
$$

SUPPLEMENTAL OBSERVATIONS (EAST)

CITY           SKY/WX    TMP DP  RH WIND       PRES   REMARKS
TEXARKANA        N/A     46  36  66 W6          N/A
LINDEN           N/A     50  37  62 W6          N/A
CADDO LAKE       N/A     52  39  62 W5          N/A
GILMER           N/A     52  37  58 NW8         N/A
HENDERSON        N/A     48  36  61 W10         N/A
LUFKIN           N/A     48  37  66 MISG        N/A
N SABINE NF      N/A     46  39  76 MISG        N/A
S SABINE NF      N/A     48  43  81 S3          N/A
$$

SUPPLEMENTAL OBSERVATIONS ARE A COLLECTION OF AUTOMATED INSTRUMENTS
THAT ARE MAINTAINED BY A VARIETY OF FEDERAL AND STATE AGENCIES.
CERTAIN ELEMENTS...SUCH AS HUMIDITY VALUES AND SUSTAINED WIND
SPEEDS...MAY BE APPROXIMATED.




USA.gov is the U.S. government's official web portal to all federal, state and local government web resources and services.